Terminal Aerodrome Forecast
Issued by NWS St Louis, MO

Home | Current Version | Previous Version | Text Only | Print | Product List | Glossary On
Versions: 1 2 3 4 5 6 7 8 9 10 11 12 13 14 15 16 17 18 19 20 21 22 23 24 25 26 27
000
FTUS43 KLSX 191300 AAA
TAFSTL
TAF AMD
KSTL 191333Z 1914/2018 07006KT P6SM SCT027 BKN060
      TEMPO 1915/1918 BKN018
     FM191800 11004KT P6SM OVC022=

USA.gov is the U.S. government's official web portal to all federal, state and local government web resources and services.